IBE05MR LPPR-LEMD

Flight info

Callsign IBE05MR
Flight time 0h 44m
Altitude 28000
Route BELDU UL155 ADORO L155 ZMR
Aircraft A320/M-SDE3FGHIRWY/LB1

Departure

Time 2026-05-04 13:58
Airport Francisco de Sá Carneiro Airport (LPPR)

Arrival

Time 2026-05-04 14:42
Airport Adolfo Suárez Madrid–Barajas Airport (LEMD)
Time Latitude Longitude Altitude Speed Heading
2026-05-04 13:22 41.23641 -8.67234 245 ft 0 kts 79°
2026-05-04 13:47 41.23638 -8.67250 245 ft 2 kts 80°
2026-05-04 13:47 41.23636 -8.67271 245 ft 2 kts 81°
2026-05-04 13:48 41.23633 -8.67293 244 ft 2 kts 85°
2026-05-04 13:48 41.23633 -8.67315 243 ft 2 kts 101°
2026-05-04 13:48 41.23640 -8.67334 242 ft 2 kts 166°
2026-05-04 13:48 41.23647 -8.67336 242 ft 0 kts 171°
2026-05-04 13:52 41.23546 -8.67371 241 ft 14 kts 210°
2026-05-04 13:52 41.23451 -8.67377 240 ft 14 kts 169°
2026-05-04 13:52 41.23364 -8.67370 238 ft 10 kts 202°
2026-05-04 13:53 41.23327 -8.67455 238 ft 12 kts 260°
2026-05-04 13:53 41.23314 -8.67553 239 ft 10 kts 259°
2026-05-04 13:53 41.23311 -8.67578 235 ft 0 kts 259°
2026-05-04 13:55 41.23308 -8.67598 238 ft 7 kts 259°
2026-05-04 13:56 41.23296 -8.67676 237 ft 8 kts 258°
2026-05-04 13:56 41.23312 -8.67733 238 ft 7 kts 337°
2026-05-04 13:56 41.23389 -8.67754 237 ft 34 kts 348°
2026-05-04 13:57 41.23872 -8.67882 223 ft 103 kts 348°
2026-05-04 13:57 41.24765 -8.68116 201 ft 156 kts 348°
2026-05-04 13:58 41.28078 -8.68988 1771 ft 184 kts 345°
2026-05-04 13:58 41.30907 -8.69734 2473 ft 234 kts 346°
2026-05-04 13:58 41.32576 -8.70175 3015 ft 253 kts 346°
2026-05-04 13:59 41.34321 -8.70642 3912 ft 256 kts 345°
2026-05-04 13:59 41.36065 -8.71100 4945 ft 256 kts 347°
2026-05-04 13:59 41.39493 -8.69746 6578 ft 281 kts 42°
2026-05-04 14:00 41.40536 -8.67503 7350 ft 293 kts 70°
2026-05-04 14:00 41.40934 -8.62056 9092 ft 299 kts 86°
2026-05-04 14:00 41.41024 -8.59269 9893 ft 304 kts 86°
2026-05-04 14:01 41.41110 -8.56427 10510 ft 315 kts 87°
2026-05-04 14:01 41.41210 -8.53410 10745 ft 338 kts 86°
2026-05-04 14:01 41.41460 -8.46872 11714 ft 362 kts 86°
2026-05-04 14:02 41.41596 -8.43507 12442 ft 366 kts 86°
2026-05-04 14:02 41.41730 -8.40101 13138 ft 371 kts 86°
2026-05-04 14:02 41.41865 -8.36653 13838 ft 375 kts 86°
2026-05-04 14:02 41.42002 -8.33161 14438 ft 380 kts 86°
2026-05-04 14:03 41.42143 -8.29625 15010 ft 385 kts 86°
2026-05-04 14:03 41.42284 -8.26050 15646 ft 388 kts 87°
2026-05-04 14:03 41.42425 -8.22446 16232 ft 392 kts 86°
2026-05-04 14:03 41.42568 -8.18796 16798 ft 397 kts 86°
2026-05-04 14:04 41.42857 -8.11355 17948 ft 407 kts 86°
2026-05-04 14:04 41.43000 -8.07568 18482 ft 412 kts 87°
2026-05-04 14:04 41.43139 -8.03738 18969 ft 416 kts 87°
2026-05-04 14:05 41.43418 -7.95963 19970 ft 424 kts 87°
2026-05-04 14:05 41.43559 -7.92024 20489 ft 428 kts 87°
2026-05-04 14:05 41.43701 -7.88046 20999 ft 432 kts 87°
2026-05-04 14:06 41.43846 -7.84035 21500 ft 436 kts 87°
2026-05-04 14:06 41.43992 -7.79984 21982 ft 440 kts 88°
2026-05-04 14:06 41.44135 -7.75897 22468 ft 443 kts 88°
2026-05-04 14:06 41.44276 -7.71778 22957 ft 447 kts 88°
2026-05-04 14:07 41.44417 -7.67620 23377 ft 451 kts 88°
2026-05-04 14:07 41.44560 -7.63430 23807 ft 454 kts 88°
2026-05-04 14:07 41.44704 -7.59207 24183 ft 457 kts 88°
2026-05-04 14:07 41.44846 -7.54972 24588 ft 459 kts 88°
2026-05-04 14:08 41.44940 -7.52151 24836 ft 460 kts 88°
2026-05-04 14:08 41.45078 -7.47876 25187 ft 463 kts 88°
2026-05-04 14:08 41.45214 -7.43574 25534 ft 466 kts 88°
2026-05-04 14:08 41.45349 -7.39250 25883 ft 468 kts 88°
2026-05-04 14:09 41.45621 -7.30523 26573 ft 474 kts 88°
2026-05-04 14:09 41.45756 -7.26131 26891 ft 476 kts 88°
2026-05-04 14:10 41.46014 -7.17267 27544 ft 480 kts 89°
2026-05-04 14:10 41.46142 -7.12817 27884 ft 482 kts 89°
2026-05-04 14:10 41.46271 -7.08360 27987 ft 478 kts 89°
2026-05-04 14:10 41.46400 -7.03962 27997 ft 472 kts 89°
2026-05-04 14:11 41.46527 -6.99580 27998 ft 476 kts 89°
2026-05-04 14:11 41.46779 -6.90567 27988 ft 495 kts 89°
2026-05-04 14:11 41.46904 -6.85946 27990 ft 503 kts 89°
2026-05-04 14:12 41.47027 -6.81265 27980 ft 507 kts 89°
2026-05-04 14:12 41.47147 -6.76560 27980 ft 508 kts 89°
2026-05-04 14:12 41.47383 -6.67143 27974 ft 509 kts 89°
2026-05-04 14:13 41.47501 -6.62433 27975 ft 508 kts 89°
2026-05-04 14:13 41.47620 -6.57723 27976 ft 508 kts 89°
2026-05-04 14:13 41.47738 -6.53013 27970 ft 508 kts 89°
2026-05-04 14:13 41.47854 -6.48301 27973 ft 508 kts 89°
2026-05-04 14:14 41.47967 -6.43589 27972 ft 508 kts 89°
2026-05-04 14:14 41.48180 -6.34182 27983 ft 507 kts 90°
2026-05-04 14:14 41.48280 -6.29489 27986 ft 506 kts 90°
2026-05-04 14:15 41.48703 -6.20185 27988 ft 506 kts 85°
2026-05-04 14:15 41.49495 -6.10868 27983 ft 506 kts 84°
2026-05-04 14:16 41.50325 -6.01561 27967 ft 505 kts 84°
2026-05-04 14:16 41.50696 -5.96907 27968 ft 505 kts 85°
2026-05-04 14:17 41.51366 -5.87591 27968 ft 504 kts 86°
2026-05-04 14:17 41.51685 -5.82936 27967 ft 504 kts 86°
2026-05-04 14:17 41.52330 -5.73621 27966 ft 504 kts 85°
2026-05-04 14:18 41.52654 -5.68962 27962 ft 504 kts 87°
2026-05-04 14:18 41.52259 -5.59697 27963 ft 499 kts 104°
2026-05-04 14:19 41.50669 -5.50705 27964 ft 498 kts 106°
2026-05-04 14:19 41.49868 -5.46210 27969 ft 498 kts 106°
2026-05-04 14:19 41.49071 -5.41713 27971 ft 498 kts 106°
2026-05-04 14:19 41.48273 -5.37218 27968 ft 498 kts 106°
2026-05-04 14:20 41.47473 -5.32723 27956 ft 498 kts 106°
2026-05-04 14:20 41.46669 -5.28238 27960 ft 498 kts 106°
2026-05-04 14:20 41.45860 -5.23752 27966 ft 497 kts 106°
2026-05-04 14:21 41.44239 -5.14790 27956 ft 497 kts 106°
2026-05-04 14:21 41.43427 -5.10308 27957 ft 498 kts 106°
2026-05-04 14:21 41.42615 -5.05827 27960 ft 498 kts 106°
2026-05-04 14:21 41.41803 -5.01343 27961 ft 498 kts 106°
2026-05-04 14:22 41.40991 -4.96861 27963 ft 498 kts 106°
2026-05-04 14:22 41.40174 -4.92382 27955 ft 498 kts 106°
2026-05-04 14:22 41.39353 -4.87904 27958 ft 498 kts 106°
2026-05-04 14:22 41.38529 -4.83429 27908 ft 498 kts 106°
2026-05-04 14:23 41.36875 -4.74483 26716 ft 497 kts 106°
2026-05-04 14:23 41.36047 -4.69996 25639 ft 498 kts 105°
2026-05-04 14:23 41.35234 -4.65595 25413 ft 480 kts 106°
2026-05-04 14:24 41.34450 -4.61367 25282 ft 462 kts 106°
2026-05-04 14:24 41.33692 -4.57289 25152 ft 446 kts 106°
2026-05-04 14:24 41.32956 -4.53354 25032 ft 431 kts 105°
2026-05-04 14:24 41.32240 -4.49546 24900 ft 418 kts 105°
2026-05-04 14:25 41.31543 -4.45855 24784 ft 406 kts 105°
2026-05-04 14:25 41.30196 -4.38724 24216 ft 393 kts 105°
2026-05-04 14:25 41.29532 -4.35208 23811 ft 391 kts 105°
2026-05-04 14:26 41.28874 -4.31714 23383 ft 388 kts 105°
2026-05-04 14:26 41.28221 -4.28250 22917 ft 385 kts 105°
2026-05-04 14:26 41.27572 -4.24807 22428 ft 383 kts 105°
2026-05-04 14:26 41.26787 -4.21472 21881 ft 382 kts 115°
2026-05-04 14:27 41.25527 -4.18397 21419 ft 377 kts 128°
2026-05-04 14:27 41.23865 -4.15744 20987 ft 371 kts 137°
2026-05-04 14:27 41.22085 -4.13269 20554 ft 369 kts 137°
2026-05-04 14:27 41.20319 -4.10806 20154 ft 367 kts 137°
2026-05-04 14:28 41.18565 -4.08363 19757 ft 365 kts 137°
2026-05-04 14:28 41.16823 -4.05940 19284 ft 360 kts 137°
2026-05-04 14:28 41.15105 -4.03546 18597 ft 356 kts 137°
2026-05-04 14:28 41.13403 -4.01177 17886 ft 353 kts 137°
2026-05-04 14:29 41.10061 -3.96529 16491 ft 343 kts 137°
2026-05-04 14:29 41.06808 -3.92010 15184 ft 334 kts 136°
2026-05-04 14:30 41.05223 -3.89808 14785 ft 322 kts 137°
2026-05-04 14:30 41.03723 -3.87725 14641 ft 303 kts 137°
2026-05-04 14:30 41.00897 -3.83817 13862 ft 290 kts 137°
2026-05-04 14:31 40.99516 -3.81900 13392 ft 285 kts 134°
2026-05-04 14:31 40.97824 -3.77313 12592 ft 276 kts 101°
2026-05-04 14:32 40.97518 -3.72295 11601 ft 272 kts 95°
2026-05-04 14:32 40.97391 -3.69796 11105 ft 274 kts 95°
2026-05-04 14:32 40.97237 -3.67253 10608 ft 280 kts 100°
2026-05-04 14:32 40.96733 -3.64773 10241 ft 279 kts 111°
2026-05-04 14:33 40.96105 -3.62345 9902 ft 279 kts 111°
2026-05-04 14:33 40.95204 -3.60108 9531 ft 274 kts 134°
2026-05-04 14:33 40.93774 -3.58520 9159 ft 266 kts 156°
2026-05-04 14:33 40.92057 -3.57759 8795 ft 258 kts 178°
2026-05-04 14:34 40.90285 -3.57691 8452 ft 254 kts 184°
2026-05-04 14:34 40.88560 -3.57684 8198 ft 248 kts 184°
2026-05-04 14:34 40.86845 -3.57679 7862 ft 247 kts 182°
2026-05-04 14:34 40.85167 -3.57669 7753 ft 235 kts 184°
2026-05-04 14:35 40.83561 -3.57660 7686 ft 227 kts 183°
2026-05-04 14:35 40.82021 -3.57651 7650 ft 218 kts 183°
2026-05-04 14:35 40.80523 -3.57642 7483 ft 212 kts 183°
2026-05-04 14:35 40.79067 -3.57634 7190 ft 208 kts 183°
2026-05-04 14:36 40.77636 -3.57626 6933 ft 203 kts 184°
2026-05-04 14:36 40.76245 -3.57618 6678 ft 198 kts 182°
2026-05-04 14:36 40.74863 -3.57611 6427 ft 199 kts 183°
2026-05-04 14:36 40.73475 -3.57603 6156 ft 200 kts 183°
2026-05-04 14:37 40.72076 -3.57595 5890 ft 201 kts 185°
2026-05-04 14:37 40.70688 -3.57586 5619 ft 198 kts 185°
2026-05-04 14:37 40.69581 -3.57580 5401 ft 200 kts 185°
2026-05-04 14:37 40.68348 -3.57573 5167 ft 199 kts 184°
2026-05-04 14:38 40.66969 -3.57565 4904 ft 198 kts 185°
2026-05-04 14:38 40.65603 -3.57556 4636 ft 193 kts 185°
2026-05-04 14:38 40.64276 -3.57548 4380 ft 189 kts 185°
2026-05-04 14:38 40.62982 -3.57540 4127 ft 183 kts 185°
2026-05-04 14:39 40.61736 -3.57533 3882 ft 175 kts 183°
2026-05-04 14:39 40.60569 -3.57526 3638 ft 164 kts 182°
2026-05-04 14:39 40.59476 -3.57519 3450 ft 153 kts 183°
2026-05-04 14:40 40.57424 -3.57508 3034 ft 144 kts 184°
2026-05-04 14:40 40.56433 -3.57503 2823 ft 141 kts 186°
2026-05-04 14:40 40.55457 -3.57494 2645 ft 141 kts 185°
2026-05-04 14:40 40.54473 -3.57495 2495 ft 144 kts 185°
2026-05-04 14:41 40.53482 -3.57479 2296 ft 142 kts 187°
2026-05-04 14:41 40.52511 -3.57471 2108 ft 139 kts 186°
2026-05-04 14:41 40.50914 -3.57466 1996 ft 70 kts 179°
2026-05-04 14:42 40.50300 -3.57546 1989 ft 33 kts 210°
2026-05-04 14:42 40.50122 -3.57671 1986 ft 27 kts 200°
2026-05-04 14:42 40.49942 -3.57686 1986 ft 26 kts 179°
2026-05-04 14:43 40.49777 -3.57685 1987 ft 17 kts 179°
2026-05-04 14:43 40.49736 -3.57780 1993 ft 11 kts 269°
2026-05-04 14:43 40.49735 -3.57889 1997 ft 14 kts 270°
2026-05-04 14:43 40.49735 -3.58002 2001 ft 12 kts 268°
2026-05-04 14:44 40.49735 -3.58121 2005 ft 14 kts 270°
2026-05-04 14:44 40.49734 -3.58259 2010 ft 15 kts 270°
2026-05-04 14:44 40.49734 -3.58385 2012 ft 13 kts 269°
2026-05-04 14:44 40.49733 -3.58517 2016 ft 15 kts 269°
2026-05-04 14:45 40.49733 -3.58673 2030 ft 18 kts 270°
2026-05-04 14:45 40.49701 -3.58811 2025 ft 16 kts 198°
2026-05-04 14:45 40.49610 -3.58882 2025 ft 16 kts 193°
2026-05-04 14:45 40.49494 -3.58884 2022 ft 17 kts 179°
2026-05-04 14:46 40.49375 -3.58882 2027 ft 14 kts 180°
2026-05-04 14:46 40.49347 -3.58914 2027 ft 6 kts 265°
2026-05-04 14:46 40.49346 -3.58966 2022 ft 4 kts 271°
2026-05-04 14:46 40.49346 -3.58967 2022 ft 0 kts 270°